Home   Weather   Sandefjord   Past weeks

Flag for Norway Past Weather in Sandefjord, Norway — Yesterday and Last 2 Weeks

Now
34 °F

Light snow. Overcast.


Feels Like: 23 °F
Forecast: 35 / 47 °F
Wind: 18 mph from North

Location: Torp

Current Time: Apr 25, 2017 at 5:12:31 am

Latest Report: Apr 25, 2017 at 4:20 am


Visibility: N/A

Pressure: 29.33 "Hg

Humidity: 100%

Dew Point: 34 °F

Location of SandefjordLocation

Past Weather in Sandefjord — Graph

°F

Sandefjord Temperature Yesterday

Maximum temperature yesterday: 46 °F (at 10:20 am)
Minimum temperature yesterday: 34 °F (at 8:50 pm)
Average temperature yesterday: 39 °F

High & Low Weather Summary for the Past Weeks

 TemperatureHumidityPressure
High55 °F (Apr 10, 12:50 pm)100% (Apr 10, 3:20 am)30.54 "Hg (Apr 10, 3:20 am)
Low27 °F (Apr 16, 2:50 am)22% (Apr 22, 1:20 pm)29.27 "Hg (Apr 24, 10:50 am)
Average40 °F69%29.84 "Hg
* Reported Apr 10 3:20 am — Apr 25 3:50 am, Sandefjord, Weather by CustomWeather, © 2017

Note: Actual official high and low records may vary slightly from our data, if they occured in-between our weather recording intervals... More about our weather records

Advertising

Sandefjord Weather History for the Previous 24 Hours

Scroll right to see more
 ConditionsComfort  
Time TempWeatherWind HumidityBarometerVisibility
3:50 am
Tue, Apr 25
32 °FLight snow. Overcast.17 mph100%29.33 "Hg3 mi
3:20 am34 °FLight snow. Fog.17 mph100%29.30 "Hg2 mi
2:50 am34 °FLight snow. Overcast.18 mph100%29.30 "Hg2 mi
2:20 am34 °FLight rain. Passing clouds.16 mph100%29.30 "HgN/A
1:50 am32 °FLight snow. Partly cloudy.15 mph100%29.30 "Hg1 mi
1:20 am32 °FLight snow. Overcast.16 mph100%29.30 "Hg1 mi
12:50 am32 °FLight snow. Dense fog.16 mph100%29.27 "Hg1 mi
12:20 am32 °FSnow. Mostly cloudy.16 mph100%29.27 "Hg1 mi
11:50 pm
Mon, Apr 24
34 °FLight snow. Overcast.13 mph93%29.27 "Hg1 mi
11:20 pm34 °FLight snow. Overcast.14 mph100%29.27 "Hg4 mi
10:50 pm34 °FLight snow. Fog.15 mph100%29.27 "Hg2 mi
9:50 pm34 °FSprinkles. Overcast.13 mph100%29.27 "Hg3 mi
9:20 pm34 °FSprinkles. Overcast.10 mph100%29.27 "Hg2 mi
8:50 pm34 °FRain showers. Partly sunny.13 mph100%29.27 "Hg2 mi
8:20 pm36 °FDrizzle. Partly sunny.15 mph100%29.27 "HgN/A
7:50 pm37 °FScattered showers. Partly sunny.15 mph81%29.27 "HgN/A
7:20 pm37 °FScattered showers. Broken clouds.14 mph81%29.27 "HgN/A
6:50 pm37 °FScattered showers. Broken clouds.14 mph87%29.27 "HgN/A
6:20 pm36 °FSnow flurries. Broken clouds.15 mph93%29.27 "HgN/A
5:50 pm36 °FScattered showers. Broken clouds.18 mph93%29.30 "HgN/A
5:20 pm39 °FScattered showers. Scattered clouds.17 mph70%29.27 "HgN/A
4:50 pm41 °FScattered showers. Scattered clouds.12 mph66%29.27 "HgN/A
4:20 pm39 °FSprinkles. Scattered clouds.17 mph70%29.27 "HgN/A
3:50 pm41 °FScattered showers. Scattered clouds.18 mph70%29.27 "HgN/A
3:20 pm41 °FScattered showers. Partly sunny.16 mph66%29.27 "HgN/A
2:50 pm41 °FPartly sunny.15 mph76%29.27 "HgN/A
2:20 pm41 °FPartly sunny.13 mph76%29.30 "HgN/A
1:50 pm41 °FPartly sunny.15 mph81%29.30 "HgN/A
1:20 pm41 °FPartly sunny.16 mph81%29.30 "HgN/A
12:50 pm41 °FPartly sunny.14 mph87%29.30 "HgN/A
12:20 pm39 °FPartly sunny.13 mph93%29.30 "HgN/A
11:50 am39 °FMostly cloudy.14 mph100%29.30 "HgN/A
11:20 am43 °FBroken clouds.8 mph93%29.27 "HgN/A
10:50 am43 °FBroken clouds.8 mph100%29.27 "HgN/A
10:20 am46 °FPartly sunny.7 mph93%29.30 "HgN/A
9:50 am41 °FBroken clouds.5 mph100%29.33 "HgN/A
9:20 am41 °FPassing clouds.5 mph100%29.33 "HgN/A
8:50 am41 °FDrizzle. Broken clouds.9 mph100%29.33 "HgN/A
8:20 am41 °FLight rain. Partly sunny.16 mph100%29.36 "Hg4 mi
7:50 am39 °FLight rain. Partly sunny.18 mph100%29.39 "Hg4 mi
7:20 am37 °FRain. Partly sunny.18 mph100%29.42 "Hg6 mi
6:50 am37 °FRain. Partly sunny.18 mph100%29.45 "Hg4 mi
6:20 am37 °FRain. Partly sunny.18 mph100%29.47 "Hg3 mi
5:50 am37 °FRain. Broken clouds.16 mph100%29.50 "Hg4 mi
5:20 am37 °FLight rain. Passing clouds.15 mph100%29.53 "Hg4 mi
Weather by CustomWeather, © 2017

See weather overviewHow to use our weather pages